Wind_Speed
11 11 11 10 10 10 11 11 11 11 11 11 11 10 11 11 11 10 10 11 11 12 11 12 12 11 12 12 12 12 12 13 12 12 11 11 10 10 9 9 8 9 9 9
11 11 11 11 11 11 12 11 11 11 11 11 11 11 11 11 11 10 10 11 11 11 11 11 12 12 12 12 12 12 12 13 13 13 11 10 10 10 10 9 8 9 10 10
12 12 12 12 12 12 12 13 12 12 11 11 12 10 11 11 11 10 11 11 12 12 12 12 12 12 13 13 13 13 13 14 14 13 12 11 10 10 10 9 9 9 9 9
13 12 12 12 13 12 12 13 13 12 12 11 13 11 10 11 11 11 11 12 12 12 12 13 12 13 13 14 14 14 14 14 14 14 13 12 11 11 10 10 10 10 10 10
13 13 12 12 12 13 13 13 13 12 12 12 13 12 11 12 12 12 12 12 12 12 13 13 14 14 14 14 15 15 15 15 15 15 14 13 12 12 11 11 11 11 11 10
13 13 12 12 12 13 13 13 13 13 13 13 13 13 13 13 13 13 13 12 12 13 14 14 15 15 15 16 16 16 16 16 16 15 14 14 13 13 12 11 11 11 11 11
13 13 13 13 13 13 14 14 14 14 14 14 13 15 15 14 14 14 14 14 14 15 15 15 15 15 16 17 17 17 17 17 16 15 15 14 14 13 13 12 12 11 11 11
13 13 13 13 13 13 14 14 14 15 15 15 15 16 15 15 15 14 14 15 15 15 16 16 16 16 16 17 17 17 17 17 17 16 16 15 15 15 14 13 13 13 12 13
13 13 13 13 13 14 15 15 15 16 17 17 16 15 15 15 15 15 15 16 17 16 17 17 17 17 17 17 18 18 18 17 17 17 16 16 16 16 15 15 15 15 15 14
14 14 14 14 14 14 15 15 16 17 18 19 18 17 17 16 15 16 17 17 17 18 18 18 18 18 18 18 18 18 19 18 18 17 17 17 17 17 17 17 17 17 16 16
14 15 15 14 14 14 15 16 17 18 19 20 20 18 18 18 18 17 17 18 18 18 19 19 20 19 19 19 19 19 19 19 19 18 17 17 18 17 17 17 17 18 18 17
16 16 16 15 15 15 16 16 17 19 19 20 21 19 18 19 19 18 18 18 18 18 19 20 20 20 19 19 20 19 19 19 19 19 18 18 18 18 18 18 18 18 19 18
17 17 17 16 16 16 17 17 18 19 20 20 21 19 18 19 19 18 18 18 18 19 19 20 20 20 20 20 20 20 20 19 19 20 20 19 18 19 19 19 19 19 20 20
18 18 18 18 18 18 18 18 19 20 20 20 20 20 19 19 18 18 18 19 19 20 20 20 20 19 20 21 21 20 20 19 19 19 20 20 19 19 19 19 19 20 20 20
18 18 19 19 19 20 20 20 20 20 21 21 20 20 20 20 19 18 18 18 19 19 20 20 20 20 21 21 21 21 20 19 19 20 20 19 19 19 19 20 20 20 20 20
19 19 19 20 20 21 21 21 21 21 21 22 21 21 21 20 20 19 19 19 20 20 21 21 21 21 22 21 21 21 20 20 20 20 20 20 19 19 20 20 21 20 20 21
20 20 21 21 22 23 21 21 21 21 21 22 22 21 22 21 21 21 21 21 21 22 22 22 22 22 21 21 21 21 20 19 20 21 20 20 20 20 20 20 20 21 21 21
21 21 22 23 23 24 22 21 22 22 22 22 21 21 22 22 22 22 22 22 22 23 23 22 23 23 22 22 22 22 21 20 20 21 21 21 21 21 21 21 21 21 21 21
22 22 22 23 23 23 22 22 22 23 22 23 23 22 23 23 23 23 23 23 23 23 23 23 23 23 22 23 23 22 22 21 21 21 21 22 21 21 21 22 22 22 22 22
21 21 22 22 23 23 22 22 22 23 23 23 23 23 23 23 23 23 23 23 24 24 24 24 23 22 23 23 22 22 22 22 22 22 22 23 23 23 23 23 24 24 24 24
21 21 22 22 22 22 22 23 23 23 23 23 23 24 23 23 23 23 23 24 24 25 25 24 23 22 23 23 23 23 23 23 23 23 23 24 25 25 25 25 25 25 25 25
22 22 22 22 23 22 22 23 23 24 23 24 24 24 24 24 23 23 24 25 25 25 25 25 24 23 24 24 24 24 24 24 24 24 24 25 26 27 27 27 27 27 26 27
22 22 23 23 23 23 24 24 24 24 25 24 24 24 25 25 25 24 25 25 25 25 25 25 24 24 24 25 25 25 24 25 25 25 25 26 26 27 28 29 29 29 28 28
22 23 24 24 24 25 25 25 24 24 25 26 26 25 26 26 25 25 25 26 26 26 25 25 25 25 24 25 25 25 26 26 26 26 26 27 27 28 29 29 29 29 29 29
24 25 25 26 26 26 26 26 25 26 26 26 26 26 26 27 27 27 27 27 27 27 26 25 25 24 24 25 25 26 26 26 26 27 27 28 28 29 29 29 29 29 29 29
24 25 25 26 26 27 27 26 26 26 27 27 27 27 27 27 27 27 27 27 28 27 26 25 25 25 25 25 26 27 26 26 26 26 27 28 28 28 29 29 29 29 29 29
Wind_Direction
272 275 277 279 282 288 291 290 288 289 291 290 294 297 297 297 299 301 305 304 302 302 304 305 304 304 306 307 309 310 312 314 314 310 306 304 302 296 289 289 287 283 280 274
266 271 276 279 284 289 291 290 288 290 296 296 298 297 296 294 296 300 304 305 303 302 302 303 302 301 303 304 307 307 307 310 311 307 303 300 299 297 292 289 291 288 281 276
264 269 274 279 284 288 288 290 289 291 293 291 294 294 298 302 302 303 303 304 305 304 303 302 301 298 299 302 304 303 303 304 306 305 301 297 296 295 292 287 289 288 284 280
265 268 272 277 282 284 284 286 286 286 286 289 290 292 295 303 304 304 302 301 301 299 299 298 299 298 299 300 301 299 298 298 298 298 299 297 293 289 288 286 286 285 282 278
267 268 271 277 281 282 282 283 285 283 283 286 287 290 295 300 302 302 303 302 298 297 297 298 298 297 298 299 299 299 298 296 295 295 295 292 289 288 286 285 286 285 283 279
268 269 271 275 278 280 279 280 280 280 281 285 288 290 292 297 299 300 300 299 298 299 298 299 297 294 294 295 296 296 297 297 294 291 291 289 287 285 283 282 282 280 279 277
268 270 272 275 277 276 276 276 276 277 280 285 287 287 291 297 299 298 298 297 297 298 297 297 297 295 293 292 293 291 293 294 294 291 289 288 285 285 283 280 279 276 274 273
269 269 272 275 277 275 275 275 276 278 280 283 285 285 289 293 293 294 295 295 295 294 295 295 297 294 292 290 290 291 291 290 289 290 289 285 282 282 280 277 277 274 273 271
273 272 273 276 276 274 274 273 276 279 283 285 285 285 288 291 293 292 294 291 290 291 293 295 296 294 291 289 288 287 289 289 289 289 288 285 280 278 275 274 275 274 274 272
276 275 274 276 277 275 273 272 273 277 282 286 287 287 290 293 292 291 288 287 286 287 290 293 294 293 291 289 289 288 288 287 286 287 286 285 282 278 276 275 274 273 273 272
277 276 275 274 274 273 272 271 274 278 282 285 288 288 291 292 292 290 288 287 288 288 290 292 291 291 290 288 289 290 287 285 283 284 283 282 281 278 276 276 275 274 272 269
275 277 277 275 273 272 273 276 276 277 281 283 286 288 289 290 291 290 287 287 289 291 290 289 289 290 291 291 290 291 288 284 282 281 281 281 280 278 276 275 274 273 271 268
272 273 275 274 273 274 276 277 277 278 279 281 284 288 288 289 290 290 289 286 288 289 290 290 289 288 291 292 291 290 289 286 282 281 280 279 279 278 275 276 276 274 273 270
270 270 272 275 274 273 274 274 275 277 279 281 284 285 284 287 288 290 291 289 286 285 287 289 289 289 289 290 291 292 290 288 284 282 280 278 278 278 276 275 275 274 273 272
271 271 271 272 274 276 277 277 277 277 279 281 282 282 283 285 287 287 286 288 286 286 284 284 286 288 288 288 288 289 290 288 287 283 280 279 277 278 277 275 275 274 274 272
273 272 271 272 274 277 278 278 277 277 278 280 281 282 283 284 286 284 283 284 285 285 287 287 287 287 288 288 286 287 288 286 284 281 279 279 278 278 278 277 275 273 274 272
274 274 273 273 274 276 277 279 278 278 279 279 280 281 282 283 283 283 283 282 282 284 286 288 289 288 287 288 286 285 286 286 283 282 279 276 277 277 276 277 277 274 273 273
276 276 276 276 275 275 277 276 277 279 280 281 281 281 281 280 280 281 282 283 283 284 286 286 287 286 284 285 286 285 284 284 283 282 280 277 276 277 277 277 277 274 274 273
276 277 277 278 278 278 276 276 277 279 280 281 281 282 282 281 279 278 280 282 284 285 286 286 285 283 282 285 284 284 283 284 281 281 280 278 277 276 276 276 277 276 275 274
275 276 277 278 279 279 279 277 278 279 280 281 280 281 282 282 280 278 277 279 282 285 286 288 286 282 281 283 283 282 283 284 282 280 280 278 276 275 274 275 275 275 274 274
274 276 276 278 280 281 281 280 280 281 283 281 281 282 282 282 282 282 281 280 282 283 285 287 285 283 283 282 282 282 282 282 281 280 278 277 275 274 274 274 275 275 275 273
277 278 278 279 281 282 282 280 280 282 282 281 281 281 281 281 282 282 282 283 283 283 283 284 283 284 284 282 282 282 281 280 280 279 278 277 276 275 274 275 275 275 274 273
277 278 279 280 282 283 282 282 282 282 282 282 281 280 280 281 281 281 282 283 284 283 282 280 281 284 284 283 282 281 281 281 280 279 278 277 277 278 276 276 275 274 272 272
277 277 278 280 281 281 281 281 281 281 281 281 281 280 280 281 281 281 282 283 284 283 281 279 281 283 282 282 283 283 282 282 281 280 279 278 277 278 277 276 275 274 272 271
275 277 279 281 283 283 282 281 281 280 280 280 279 280 281 281 280 281 282 283 283 283 282 280 280 282 283 284 284 284 284 283 282 281 280 279 279 278 278 277 276 275 273 272
276 278 279 280 282 283 283 282 282 280 280 281 281 279 280 281 281 281 282 284 284 282 281 280 280 280 281 283 284 284 285 284 283 282 281 281 280 280 280 278 276 276 275 274
Height
5872 5872 5871 5871 5870 5870 5868 5867 5866 5866 5865 5864 5863 5862 5862 5861 5860 5859 5858 5857 5856 5855 5854 5853 5852 5851 5850 5849 5847 5846 5844 5843 5841 5840 5838 5837 5836 5835 5834 5834 5833 5833 5832 5832
5870 5869 5869 5868 5867 5866 5865 5864 5863 5862 5861 5860 5860 5859 5858 5857 5857 5856 5855 5854 5853 5852 5851 5850 5849 5848 5847 5846 5845 5843 5842 5840 5839 5837 5836 5835 5833 5832 5831 5831 5831 5830 5830 5830
5866 5867 5865 5865 5864 5863 5862 5861 5860 5859 5859 5858 5857 5857 5855 5854 5854 5853 5852 5851 5850 5849 5848 5847 5846 5845 5844 5843 5841 5840 5839 5837 5836 5834 5833 5832 5831 5830 5829 5828 5828 5827 5827 5827
5862 5862 5862 5861 5860 5859 5859 5858 5857 5856 5855 5855 5854 5853 5853 5851 5851 5850 5849 5848 5847 5846 5845 5844 5843 5842 5840 5839 5838 5836 5835 5834 5833 5831 5830 5829 5828 5827 5826 5825 5825 5824 5824 5823
5858 5858 5858 5857 5857 5856 5855 5854 5853 5852 5852 5852 5850 5849 5849 5847 5847 5846 5846 5845 5843 5842 5841 5840 5839 5838 5837 5835 5834 5833 5832 5830 5829 5828 5827 5826 5825 5824 5823 5822 5821 5821 5820 5820
5854 5854 5854 5854 5853 5852 5851 5851 5850 5849 5848 5848 5847 5846 5845 5844 5843 5842 5841 5841 5840 5839 5838 5837 5835 5834 5833 5831 5830 5829 5828 5826 5825 5824 5823 5822 5821 5820 5819 5819 5818 5817 5817 5816
5850 5850 5850 5850 5849 5848 5847 5847 5847 5845 5845 5845 5843 5842 5842 5841 5839 5838 5837 5837 5836 5835 5834 5832 5830 5829 5828 5827 5826 5825 5824 5822 5821 5820 5819 5818 5818 5816 5816 5815 5814 5814 5814 5813
5847 5847 5846 5845 5845 5844 5843 5843 5843 5842 5841 5840 5839 5837 5838 5837 5835 5834 5833 5832 5831 5830 5829 5828 5826 5824 5823 5822 5821 5820 5819 5818 5817 5816 5815 5814 5813 5812 5812 5811 5811 5810 5810 5810
5842 5843 5842 5841 5840 5840 5839 5839 5839 5838 5836 5835 5835 5834 5833 5832 5831 5830 5829 5827 5826 5826 5824 5823 5822 5820 5819 5818 5817 5816 5815 5814 5813 5812 5811 5810 5809 5808 5807 5807 5806 5806 5806 5805
5838 5839 5838 5837 5837 5836 5836 5835 5834 5833 5832 5831 5830 5830 5830 5828 5827 5826 5824 5823 5822 5821 5820 5819 5817 5816 5814 5813 5812 5811 5810 5809 5808 5807 5806 5805 5804 5803 5803 5802 5802 5801 5801 5800
5834 5834 5834 5834 5833 5832 5832 5831 5829 5828 5828 5827 5825 5828 5825 5823 5822 5821 5820 5818 5817 5816 5815 5814 5812 5811 5809 5808 5807 5806 5805 5803 5802 5801 5801 5800 5799 5798 5798 5797 5797 5796 5796 5795
5829 5829 5829 5829 5829 5827 5827 5826 5825 5824 5823 5821 5820 5823 5820 5818 5817 5815 5814 5813 5812 5811 5810 5808 5807 5806 5804 5803 5802 5800 5799 5798 5797 5796 5795 5795 5794 5793 5793 5792 5791 5791 5790 5790
5825 5824 5824 5824 5825 5823 5822 5821 5820 5819 5818 5816 5815 5818 5815 5813 5811 5810 5809 5807 5806 5805 5804 5803 5801 5800 5799 5798 5797 5795 5793 5792 5791 5790 5789 5789 5788 5788 5787 5786 5786 5785 5784 5784
5819 5819 5819 5819 5818 5817 5816 5815 5814 5813 5812 5811 5810 5810 5809 5808 5806 5805 5804 5802 5800 5799 5798 5797 5796 5794 5794 5792 5791 5789 5788 5786 5785 5784 5784 5783 5782 5782 5781 5780 5780 5779 5778 5777
5814 5813 5813 5813 5812 5811 5810 5810 5809 5808 5806 5805 5805 5804 5803 5802 5801 5800 5798 5796 5795 5793 5792 5791 5790 5789 5787 5786 5785 5784 5782 5781 5779 5778 5777 5777 5776 5775 5775 5774 5773 5773 5772 5771
5808 5807 5807 5807 5806 5805 5804 5804 5803 5802 5801 5799 5798 5798 5797 5796 5795 5794 5792 5791 5789 5788 5786 5785 5784 5782 5781 5780 5779 5777 5776 5774 5773 5772 5771 5770 5770 5769 5768 5768 5767 5766 5766 5765
5802 5801 5801 5800 5800 5798 5798 5798 5796 5795 5795 5794 5792 5793 5790 5789 5788 5787 5786 5785 5783 5782 5780 5779 5777 5776 5775 5774 5772 5771 5770 5768 5767 5765 5764 5764 5763 5762 5762 5761 5760 5760 5759 5759
5795 5794 5794 5793 5793 5791 5794 5791 5790 5789 5788 5787 5785 5785 5783 5782 5781 5780 5779 5778 5776 5775 5774 5772 5770 5769 5768 5767 5765 5764 5763 5761 5760 5759 5758 5758 5757 5756 5755 5755 5754 5753 5753 5752
5789 5788 5787 5786 5785 5784 5786 5785 5783 5781 5781 5780 5778 5777 5776 5775 5774 5773 5772 5771 5769 5768 5766 5765 5763 5762 5761 5760 5758 5757 5756 5755 5754 5753 5752 5751 5750 5750 5749 5749 5748 5747 5746 5746
5782 5781 5780 5779 5777 5777 5779 5778 5776 5775 5774 5773 5771 5770 5769 5768 5767 5767 5765 5763 5762 5760 5759 5757 5755 5754 5754 5753 5751 5750 5749 5748 5747 5746 5745 5744 5744 5743 5742 5742 5741 5740 5739 5739
5775 5774 5774 5772 5770 5770 5771 5769 5768 5768 5767 5765 5763 5762 5761 5760 5759 5758 5757 5756 5754 5753 5751 5749 5748 5747 5747 5745 5744 5743 5742 5741 5740 5739 5738 5737 5737 5736 5735 5734 5734 5733 5732 5731
5768 5767 5767 5765 5764 5766 5763 5761 5761 5760 5757 5756 5755 5754 5753 5752 5751 5750 5749 5748 5746 5745 5744 5742 5740 5740 5739 5737 5736 5735 5734 5733 5732 5731 5731 5730 5729 5728 5727 5726 5725 5725 5724 5723
5761 5761 5759 5759 5759 5757 5755 5754 5753 5751 5749 5748 5747 5746 5745 5744 5743 5742 5741 5740 5738 5737 5735 5734 5733 5732 5731 5729 5728 5728 5727 5725 5724 5723 5722 5721 5720 5719 5718 5717 5716 5716 5715 5714
5754 5753 5752 5751 5750 5749 5748 5746 5745 5743 5741 5740 5738 5737 5736 5735 5734 5734 5733 5731 5730 5728 5727 5726 5725 5724 5723 5721 5720 5719 5718 5717 5716 5715 5713 5712 5711 5710 5709 5708 5707 5706 5705 5705
5747 5745 5744 5743 5742 5741 5740 5738 5737 5735 5733 5731 5730 5729 5728 5727 5726 5725 5724 5723 5721 5720 5719 5718 5717 5716 5715 5713 5712 5711 5710 5708 5707 5706 5704 5703 5702 5701 5699 5698 5697 5696 5696 5695
5739 5738 5737 5736 5735 5733 5732 5730 5728 5726 5725 5723 5721 5720 5719 5718 5717 5716 5715 5714 5712 5711 5710 5709 5708 5707 5706 5705 5704 5703 5701 5699 5698 5697 5695 5694 5693 5691 5690 5689 5687 5686 5686 5685